Location: Azul
(36.7830°S, 59.8500°W)
Time: 18:24:02
(UTC-03:00)

FO-29 - Pass Details

Date: 29 October 2021
Orbit: 799 x 1322 km, 98.5° (Epoch: 05 December)

Event Time Altitude Azimuth Distance (km) Brightness Sun altitude
Rises 21:17:24 0° 158° (SSE) 4,194 13.0 -20.0°
Reaches altitude 10° 21:20:16 10° 150° (SSE) 3,275 12.3 -20.5°
Maximum altitude 21:27:20 38° 84° (E) 1,898 10.6 -21.6°
Enters shadow 21:28:55 35° 59° (ENE) 1,999 10.5 -21.9°
